Preview of NWS' New Version of Forecast
This preview is not operational and should not be used for support decisions.

Regional Weather Roundup (RWR)

Issued by National Weather Service (NWS)

                            
000
ASUS44 KJAN 210710
RWRMS 

MISSISSIPPI HOURLY WEATHER ROUNDUP
NATIONAL WEATHER SERVICE JACKSON MS
100 AM CST THU FEB 21 2019

NOTE: "FAIR: INDICATES FEW OR NO CLOUDS BELOW 12,000 FEET WITH NO
SIGNIFICANT WEATHER AND/OR OBSTRUCTIONS TO VISIBILITY.

MSZ001>002-007>008-010>013-018>021-025>028-034>036-210800-
NORTHWEST MISSISSIPPI
  
CITY           SKY/WX    TMP DP  RH WIND       PRES   REMARKS
BATESVILLE     FAIR      32  32 100 CALM      30.06R FOG              
CLARKSDALE       N/A     36  36 100 N5        30.08R FOG     WCI  32  
CLEVELAND      FAIR      39  39 100 CALM      30.07R                  
GREENWOOD      FAIR      40  39  97 N3        30.05S FOG              
GREENVILLE       N/A     40  38  93 CALM      30.05F VSB 1/2          
OLIVE BRANCH   FOG       30 N/A N/A N6        30.06S VSB 0   WCI  24  
OXFORD         FAIR      36  34  93 CALM      30.08S                  
TUNICA         FOG       34  34 100 N3        30.10R VSB 3/4          
WINONA         CLOUDY    44  44 100 N6        30.04S                  
$$

MSZ003>006-009-014>017-022>024-029>033-037>039-210800-
NORTHEAST MISSISSIPPI
  
CITY           SKY/WX    TMP DP  RH WIND       PRES   REMARKS
ABERDEEN       CLOUDY    46  48 100 N8        30.07R                  
COLUMBUS AFB   CLOUDY    49  46  90 N10       30.03S                  
CORINTH        FAIR      43  41  93 CALM      30.07R                  
GOLDN TRIANGLE CLOUDY    48  47  96 N9        30.04R                  
STARKVILLE     CLOUDY    46  45  93 N5        30.05S                  
TUPELO         MOCLDY    46  42  86 N8        30.05R                  
$$

MSZ040-058-210800-
CENTRAL MISSISSIPPI
  
CITY           SKY/WX    TMP DP  RH WIND       PRES   REMARKS
JACKSON INTL   CLOUDY    51  46  83 NE6       30.02F                  
JACKSON HAWKNS CLOUDY    51  48  89 VRB3      30.03F                  
MADISON        PTSUNNY   48  48 100 CALM      30.01F                  
MERIDIAN KEY   TSTM      54  52  93 N12       29.99F FOG              
MERIDIAN NAS   CLOUDY    53  51  93 VRB3      30.03R THUNDER          
RAYMOND        FAIR      48  48 100 CALM      30.03S                  
VICKSBURG VKS  CLOUDY    50  48  93 CALM      30.04S                  
$$

MSZ059>079-210800-
SOUTH MISSISSIPPI
  
CITY           SKY/WX    TMP DP  RH WIND       PRES   REMARKS
HATTIESBURG    CLOUDY    57  56  96 NW7       30.01R FOG              
LAUREL         CLOUDY    54  54 100 NW6       30.03R                  
MCCOMB         TSTM      54  51  90 N7        30.00R FOG              
NATCHEZ        CLOUDY    51  47  86 NE3       30.03R                  
PINE BELT      LGT RAIN  55  54  96 NW5       30.02R FOG              
$$

MSZ080>082-210800-
COASTAL MISSISSIPPI
  
CITY           SKY/WX    TMP DP  RH WIND       PRES   REMARKS
BILOXI         FOG       66  66 100 S7        29.96S VSB 1/2          
PASCAGOULA     FOG       69  67  93 SW5       29.96F VSB 1/2          
GULFPORT       FOG       66  66 100 CALM      29.96S VSB 1/2          
$$

LAZ007>009-015>016-023>026-210800-
NORTHEAST LOUISIANA
  
CITY           SKY/WX    TMP DP  RH WIND       PRES   REMARKS
BASTROP        FAIR      36  36  98 CALM      30.05S FOG              
TALLULAH/VBURG MOCLDY    48  45  89 NE5       30.03S                  
VIDALIA        CLOUDY    52  47  82 NE6       30.02R                  
$$